Date String (YYYY-MM-DD hh:mm:ss) UTC,Instrument flags,absolute air pressure of the measurement (hPa),sample flow rate (lpm),inlet stack bypass flow (lpm),air temperature of the measurement (°C),ambient temperature measured by the external sensor (°C),aerosol sample conditioner tube jacket temperature (°C),OPC LED temperature (°C),internal box temperature (°C),relative humidity of the measurement (%),span deviation,mass concentration of particles derived from Lorenz-Mie calculation of OPC scattering (μg/m³),mass concentration of particles derived from Lorenz-Mie calculation of OPC scattering (μg/m³),mass concentration of particles derived from Lorenz-Mie calculation of OPC scattering (μg/m³)
DateTimeUTC,F1_M11,P_M11,Q1_M11,Q2_M11,T1_M11,T2_M11,T3_M11,T4_M11,T5_M11,U1_M11,ZSPAN_M11,X0_M11,X2_M11,X1_M11
2024-02-17 08:00:00,SystemResetWarning,0835.9,5.00,000.00,018.6,018.4,000.0,027.0,020.2,11.7,0000.0,0005.08,0004.18,0004.06
2024-02-17 08:01:00,SystemResetWarning,0835.9,5.00,000.00,018.5,018.2,000.0,027.0,020.1,11.7,0000.0,0005.45,0004.19,0004.07
2024-02-17 08:02:00,SystemResetWarning,0835.9,5.00,000.00,018.5,018.1,000.0,026.9,020.0,11.7,0000.0,0006.76,0004.19,0004.07
2024-02-17 08:03:00,SystemResetWarning,0835.9,5.00,000.00,018.4,017.9,000.0,027.0,020.0,11.8,0000.0,0007.31,0004.20,0004.07
2024-02-17 08:04:00,SystemResetWarning,0835.9,5.00,000.00,018.4,017.8,000.0,027.0,020.0,11.8,0000.0,0007.30,0004.19,0004.07
2024-02-17 08:05:00,SystemResetWarning,0835.9,5.00,000.00,018.4,017.8,000.0,027.0,020.0,11.8,0000.0,0007.29,0004.19,0004.07
2024-02-17 08:06:00,SystemResetWarning,0836.0,5.00,000.00,018.4,017.7,000.0,027.0,020.0,11.8,0000.0,0007.26,0004.20,0004.08
2024-02-17 08:07:00,SystemResetWarning,0836.0,5.00,000.00,018.3,017.6,000.0,027.0,020.0,11.8,0000.0,0007.23,0004.19,0004.08
2024-02-17 08:08:00,SystemResetWarning,0836.0,5.00,000.00,018.3,017.6,000.0,027.0,020.0,11.8,0000.0,0007.07,0004.20,0004.10
2024-02-17 08:09:00,SystemResetWarning,0836.1,5.00,000.00,018.3,017.6,000.0,027.0,020.0,11.8,0000.0,0007.07,0004.20,0004.10
2024-02-17 08:10:00,SystemResetWarning,0836.1,5.01,000.00,018.4,018.2,000.0,027.1,020.4,11.8,0000.0,0007.02,0004.19,0004.10
2024-02-17 08:11:00,SystemResetWarning,0836.1,4.99,000.00,018.6,019.0,000.0,027.2,020.9,11.6,0000.0,0007.01,0004.20,0004.12
2024-02-17 08:12:00,SystemResetWarning,0836.1,4.99,000.00,018.8,019.1,000.0,027.1,020.9,11.5,0000.0,0006.67,0004.21,0004.13
2024-02-17 08:13:00,SystemResetWarning,0836.1,4.99,000.00,018.8,018.9,000.0,027.1,020.7,11.5,0000.0,0005.39,0004.22,0004.15
2024-02-17 08:14:00,SystemResetWarning,0836.1,5.01,000.00,018.7,018.7,000.0,027.0,020.6,11.5,0000.0,0005.01,0004.24,0004.16
2024-02-17 08:15:00,SystemResetWarning,0836.1,5.00,000.00,018.7,018.6,000.0,027.0,020.5,11.5,0000.0,0004.89,0004.27,0004.19
2024-02-17 08:16:00,SystemResetWarning,0836.1,4.99,000.00,018.7,018.4,000.0,027.0,020.4,11.5,0000.0,0004.90,0004.28,0004.21
2024-02-17 08:17:00,SystemResetWarning,0836.1,5.00,000.00,018.6,018.3,000.0,027.0,020.3,11.6,0000.0,0004.95,0004.30,0004.23
2024-02-17 08:18:00,SystemResetWarning,0836.1,5.00,000.00,018.6,018.2,000.0,027.0,020.2,11.6,0000.0,0005.02,0004.33,0004.25
2024-02-17 08:19:00,SystemResetWarning,0836.1,5.00,000.00,018.5,018.1,000.0,027.0,020.2,11.6,0000.0,0005.06,0004.35,0004.27
2024-02-17 08:20:00,SystemResetWarning,0836.1,5.00,000.00,018.5,018.0,000.0,026.9,020.1,11.6,0000.0,0005.09,0004.36,0004.28
2024-02-17 08:21:00,SystemResetWarning,0836.1,5.00,000.00,018.4,017.9,000.0,026.9,020.1,11.6,0000.0,0005.15,0004.39,0004.30
2024-02-17 08:22:00,SystemResetWarning,0836.0,5.00,000.00,018.4,017.9,000.0,026.9,020.0,11.6,0000.0,0005.17,0004.40,0004.30
2024-02-17 08:23:00,SystemResetWarning,0836.0,5.00,000.00,018.4,017.8,000.0,026.9,020.0,11.7,0000.0,0005.20,0004.40,0004.30
2024-02-17 08:24:00,SystemResetWarning,0835.9,5.00,000.00,018.4,017.8,000.0,026.9,020.0,11.7,0000.0,0005.28,0004.40,0004.30
2024-02-17 08:25:00,SystemResetWarning,0836.0,5.00,000.00,018.3,017.7,000.0,026.9,020.0,11.7,0000.0,0005.27,0004.41,0004.31
2024-02-17 08:26:00,SystemResetWarning,0836.0,5.00,000.00,018.3,017.7,000.0,026.9,020.0,11.7,0000.0,0005.29,0004.43,0004.34
2024-02-17 08:27:00,SystemResetWarning,0835.9,5.00,000.00,018.3,017.7,000.0,026.9,020.0,11.7,0000.0,0005.34,0004.45,0004.36
2024-02-17 08:28:00,SystemResetWarning,0836.0,5.01,000.00,018.3,017.8,000.0,027.0,020.1,11.7,0000.0,0005.45,0004.49,0004.38
2024-02-17 08:29:00,SystemResetWarning,0836.0,5.02,000.00,018.5,018.5,000.0,027.1,020.6,11.6,0000.0,0005.48,0004.50,0004.39
2024-02-17 08:30:00,SystemResetWarning,0836.1,4.98,000.00,018.7,019.2,000.0,027.1,021.0,11.5,0000.0,0005.50,0004.52,0004.41
2024-02-17 08:31:00,SystemResetWarning,0835.9,4.99,000.00,018.8,019.0,000.0,027.1,020.8,11.4,0000.0,0005.51,0004.53,0004.42
2024-02-17 08:32:00,SystemResetWarning,0835.9,5.02,000.00,018.7,018.8,000.0,027.0,020.6,11.4,0000.0,0005.50,0004.53,0004.43
2024-02-17 08:33:00,SystemResetWarning,0835.9,5.01,000.00,018.7,018.6,000.0,027.0,020.5,11.5,0000.0,0005.55,0004.55,0004.44
2024-02-17 08:34:00,SystemResetWarning,0835.9,5.00,000.00,018.6,018.5,000.0,027.0,020.3,11.5,0000.0,0005.61,0004.59,0004.47
2024-02-17 08:35:00,SystemResetWarning,0835.9,4.99,000.00,018.6,018.3,000.0,027.0,020.2,11.5,0000.0,0005.61,0004.61,0004.50
2024-02-17 08:36:00,SystemResetWarning,0835.9,5.00,000.00,018.5,018.2,000.0,027.0,020.1,11.6,0000.0,0005.67,0004.63,0004.51
2024-02-17 08:37:00,SystemResetWarning,0835.9,5.00,000.00,018.5,018.1,000.0,026.9,020.0,11.6,0000.0,0005.74,0004.64,0004.52
2024-02-17 08:38:00,SystemResetWarning,0835.9,5.00,000.00,018.4,018.0,000.0,026.9,020.0,11.6,0000.0,0005.70,0004.63,0004.52
2024-02-17 08:39:00,SystemResetWarning,0835.9,5.00,000.00,018.4,017.9,000.0,027.0,020.0,11.7,0000.0,0005.61,0004.63,0004.53
2024-02-17 08:40:00,SystemResetWarning,0836.0,4.99,000.00,018.4,017.8,000.0,027.0,020.0,11.7,0000.0,0005.66,0004.65,0004.55
2024-02-17 08:41:00,SystemResetWarning,0836.0,5.01,000.00,018.4,017.8,000.0,027.0,020.0,11.7,0000.0,0005.69,0004.66,0004.56
2024-02-17 08:42:00,SystemResetWarning,0836.0,5.00,000.00,018.3,017.7,000.0,027.0,020.0,11.6,0000.0,0005.70,0004.67,0004.57
2024-02-17 08:43:00,SystemResetWarning,0836.0,5.00,000.00,018.3,017.7,000.0,027.0,020.0,11.6,0000.0,0005.79,0004.71,0004.60
2024-02-17 08:44:00,SystemResetWarning,0836.0,5.01,000.00,018.3,017.6,000.0,027.0,020.0,11.6,0000.0,0005.77,0004.72,0004.61
2024-02-17 08:45:00,SystemResetWarning,0836.0,5.01,000.00,018.3,017.8,000.0,027.0,020.1,11.6,0000.0,0005.71,0004.70,0004.61
2024-02-17 08:46:00,SystemResetWarning,0836.1,5.00,000.00,018.5,018.5,000.0,027.1,020.6,11.6,0000.0,0005.63,0004.69,0004.61
2024-02-17 08:47:00,SystemResetWarning,0836.1,5.00,000.00,018.7,019.1,000.0,027.2,021.0,11.4,0000.0,0005.56,0004.69,0004.62
2024-02-17 08:48:00,SystemResetWarning,0836.1,4.99,000.00,018.8,019.0,000.0,027.1,020.8,11.3,0000.0,0005.55,0004.69,0004.62
2024-02-17 08:49:00,SystemResetWarning,0836.0,4.99,000.00,018.7,018.8,000.0,027.1,020.6,11.3,0000.0,0005.66,0004.69,0004.60
2024-02-17 08:50:00,SystemResetWarning,0835.9,5.00,000.00,018.7,018.6,000.0,027.0,020.4,11.4,0000.0,0005.80,0004.70,0004.59
2024-02-17 08:51:00,SystemResetWarning,0836.0,5.01,000.00,018.6,018.5,000.0,027.0,020.3,11.4,0000.0,0005.70,0004.66,0004.56
2024-02-17 08:52:00,SystemResetWarning,0836.0,4.99,000.00,018.6,018.3,000.0,027.0,020.2,11.4,0000.0,0005.64,0004.62,0004.53
2024-02-17 08:53:00,SystemResetWarning,0836.0,4.99,000.00,018.5,018.2,000.0,027.0,020.1,11.4,0000.0,0005.64,0004.60,0004.51
2024-02-17 08:54:00,SystemResetWarning,0835.9,4.99,000.00,018.5,018.1,000.0,026.9,020.1,11.5,0000.0,0005.57,0004.57,0004.48
2024-02-17 08:55:00,SystemResetWarning,0835.9,5.00,000.00,018.4,018.0,000.0,026.9,020.0,11.5,0000.0,0005.50,0004.52,0004.44
2024-02-17 08:56:00,SystemResetWarning,0835.9,5.00,000.00,018.4,017.9,000.0,026.9,020.0,11.5,0000.0,0005.52,0004.50,0004.41
2024-02-17 08:57:00,SystemResetWarning,0835.9,5.01,000.00,018.4,017.8,000.0,026.9,020.0,11.5,0000.0,0005.46,0004.45,0004.36
2024-02-17 08:58:00,SystemResetWarning,0835.9,5.01,000.00,018.4,017.8,000.0,027.0,020.0,11.5,0000.0,0005.39,0004.41,0004.32
2024-02-17 08:59:00,SystemResetWarning,0835.9,4.99,000.00,018.3,017.7,000.0,027.0,020.0,11.6,0000.0,0005.31,0004.36,0004.27
